{"data":{"norad_id":65698,"epoch":"2026-05-24T20:24:10.895904Z","epoch_age_seconds":98031,"freshness":"FRESH","line1":"1 65698U 25212Y   26144.85012611  .00022558  00000+0  77118-3 0  9995","line2":"2 65698  53.1604 351.9434 0001192  86.5754 273.5383 15.30210861 38900","mean_motion":15.30210861,"eccentricity":0.0001192,"inclination_deg":53.1604,"raan_deg":351.9434,"arg_perigee_deg":86.5754,"mean_anomaly_deg":273.5383,"bstar":0.00077118,"rev_number":3890,"period_min":94.104677773556,"perigee_km":474.36572492168,"apogee_km":475.999556324,"semimajor_km":6853.3196406228,"source":"CELESTRAK","updated_at":"2026-05-25T13:38:20.898464Z"}}